,,,PA_Meas_PMT16A,,PR_Meas_QMR101_102,,RH_Meas_QMH101,,SR_Meas_QMS101,,TA_Meas_QMH101,,GenWind,,GenWind,
date,time,status,PA,status,PR,status,RH,status,SR,status,TA,status,DirAvg,status,SpdAvg,
2009-07-23, 00:00:04,VALID,1001.19,VALID,0,VALID,91.8454,VALID,0,VALID,24.2866,VALID,54,VALID,0.710156,
2009-07-23, 00:01:04,VALID,1001.19,VALID,0,VALID,91.7767,VALID,0,VALID,24.2671,VALID,54,VALID,0.720703,
2009-07-23, 00:02:04,VALID,1001.17,VALID,0,VALID,91.708,VALID,0,VALID,24.2476,VALID,44,VALID,0.676172,
2009-07-23, 00:03:04,VALID,1001.19,VALID,0,VALID,91.647,VALID,0,VALID,24.2476,VALID,40,VALID,0.744531,
2009-07-23, 00:04:04,VALID,1001.2,VALID,0,VALID,91.708,VALID,0,VALID,24.2281,VALID,37,VALID,0.73125,
2009-07-23, 00:05:04,VALID,1001.21,VALID,0,VALID,91.7385,VALID,0,VALID,24.2281,VALID,37,VALID,0.725,
2009-07-23, 00:06:04,VALID,1001.21,VALID,0,VALID,91.7462,VALID,0,VALID,24.2281,VALID,37,VALID,0.652344,
2009-07-23, 00:07:04,VALID,1001.21,VALID,0,VALID,91.6088,VALID,0,VALID,24.2476,VALID,37,VALID,0.621094,
2009-07-23, 00:08:04,VALID,1001.22,VALID,0,VALID,91.38,VALID,0,VALID,24.2671,VALID,35,VALID,0.555469,
2009-07-23, 00:09:04,VALID,1001.19,VALID,0,VALID,91.2579,VALID,0,VALID,24.2671,VALID,35,VALID,0.347266,
2009-07-23, 00:10:04,VALID,1001.17,VALID,0,VALID,91.1892,VALID,0,VALID,24.2866,VALID,35,VALID,0.198437,
2009-07-23, 00:11:04,VALID,1001.16,VALID,0,VALID,91.0595,VALID,0.112286,VALID,24.2848,VALID,35,VALID,0.152344,
2009-07-23, 00:12:04,VALID,1001.14,VALID,0,VALID,91.029,VALID,0.112286,VALID,24.2653,VALID,35,VALID,0,
2009-07-23, 00:13:04,VALID,1001.14,VALID,0,VALID,90.9756,VALID,0,VALID,24.2653,VALID,35,VALID,0,
2009-07-23, 00:14:04,VALID,1001.09,VALID,0,VALID,90.8764,VALID,0.112286,VALID,24.2458,VALID,35,VALID,0.0515625,
2009-07-23, 00:15:04,VALID,1001.06,VALID,0,VALID,90.8917,VALID,0.112286,VALID,24.2458,VALID,35,VALID,0.272266,
2009-07-23, 00:16:04,VALID,1001.07,VALID,0,VALID,90.7925,VALID,0.112286,VALID,24.2458,VALID,35,VALID,0.324609,
2009-07-23, 00:17:04,VALID,1001.02,VALID,0,VALID,90.8001,VALID,0.112286,VALID,24.2458,VALID,35,VALID,0.322656,
2009-07-23, 00:18:04,VALID,1000.99,VALID,0,VALID,90.7085,VALID,0.112286,VALID,24.2458,VALID,35,VALID,0.186719,
2009-07-23, 00:19:04,VALID,1000.94,VALID,0,VALID,90.7238,VALID,0.112286,VALID,24.2458,VALID,35,VALID,0.103125,
2009-07-23, 00:20:04,VALID,1000.94,VALID,0,VALID,90.6628,VALID,0.112286,VALID,24.2263,VALID,35,VALID,0.000390625,
2009-07-23, 00:21:04,VALID,1000.89,VALID,0,VALID,90.6704,VALID,0.112286,VALID,24.2067,VALID,35,VALID,0,
2009-07-23, 00:22:04,VALID,1000.88,VALID,0,VALID,90.7085,VALID,0.112286,VALID,24.2067,VALID,35,VALID,0,
2009-07-23, 00:23:04,VALID,1000.89,VALID,0,VALID,90.7772,VALID,0.112286,VALID,24.1872,VALID,35,VALID,0,
2009-07-23, 00:24:04,VALID,1000.89,VALID,0,VALID,90.9374,VALID,0.112286,VALID,24.1677,VALID,35,VALID,0,
2009-07-23, 00:25:04,VALID,1000.91,VALID,0,VALID,91.0824,VALID,0.112286,VALID,24.2067,VALID,35,VALID,0.472656,
2009-07-23, 00:26:04,VALID,1000.91,VALID,0,VALID,91.1892,VALID,0,VALID,24.2086,VALID,35,VALID,0.513281,
2009-07-23, 00:27:04,VALID,1000.89,VALID,0,VALID,91.2197,VALID,0,VALID,24.2086,VALID,35,VALID,0.574609,
2009-07-23, 00:28:04,VALID,1000.92,VALID,0,VALID,91.029,VALID,0,VALID,24.2299,VALID,30,VALID,0.531641,
2009-07-23, 00:29:04,VALID,1000.93,VALID,0,VALID,90.9832,VALID,0,VALID,24.1891,VALID,30,VALID,0.359766,
2009-07-23, 00:30:04,VALID,1000.89,VALID,0,VALID,90.8993,VALID,0,VALID,24.1696,VALID,30,VALID,0.386328,
2009-07-23, 00:31:04,VALID,1000.88,VALID,0,VALID,90.9298,VALID,0,VALID,24.1696,VALID,30,VALID,0.423438,
2009-07-23, 00:32:04,VALID,1000.88,VALID,0,VALID,90.968,VALID,0,VALID,24.1696,VALID,30,VALID,0.3875,
2009-07-23, 00:33:04,VALID,1000.86,VALID,0,VALID,90.8917,VALID,0,VALID,24.1909,VALID,30,VALID,0.386328,
2009-07-23, 00:34:04,VALID,1000.87,VALID,0,VALID,90.9603,VALID,0,VALID,24.1891,VALID,30,VALID,0.373437,
2009-07-23, 00:35:04,VALID,1000.83,VALID,0,VALID,91.0824,VALID,0,VALID,24.1891,VALID,30,VALID,0.420703,
2009-07-23, 00:36:04,VALID,1000.82,VALID,0,VALID,91.4715,VALID,0,VALID,24.2299,VALID,64,VALID,0.541406,
2009-07-23, 00:37:04,VALID,1000.82,VALID,0,VALID,91.6623,VALID,0,VALID,24.2671,VALID,79,VALID,0.528516,
2009-07-23, 00:38:04,VALID,1000.82,VALID,0,VALID,91.6165,VALID,0,VALID,24.3062,VALID,79,VALID,0.474219,
2009-07-23, 00:39:04,VALID,1000.83,VALID,0,VALID,91.5326,VALID,0,VALID,24.3666,VALID,79,VALID,0.342578,
2009-07-23, 00:40:04,VALID,1000.85,VALID,0,VALID,91.3723,VALID,0,VALID,24.3842,VALID,79,VALID,0.0664063,
2009-07-23, 00:41:04,VALID,1000.88,VALID,0,VALID,91.235,VALID,0,VALID,24.3824,VALID,79,VALID,0,
2009-07-23, 00:42:04,VALID,1000.9,VALID,0,VALID,91.0519,VALID,0,VALID,24.3842,VALID,323,VALID,0.605859,
2009-07-23, 00:43:04,VALID,1000.91,VALID,0,VALID,91.0366,VALID,0,VALID,24.3824,VALID,317,VALID,0.662891,
2009-07-23, 00:44:04,VALID,1000.91,VALID,0,VALID,90.8611,VALID,0,VALID,24.3824,VALID,318,VALID,0.710547,
2009-07-23, 00:45:04,VALID,1000.91,VALID,0,VALID,90.8154,VALID,0,VALID,24.3629,VALID,320,VALID,0.689062,
2009-07-23, 00:46:04,VALID,1000.87,VALID,0,VALID,90.7696,VALID,0,VALID,24.3647,VALID,325,VALID,0.616406,
2009-07-23, 00:47:04,VALID,1000.91,VALID,0,VALID,90.7467,VALID,0,VALID,24.3452,VALID,325,VALID,0.495313,
2009-07-23, 00:48:04,VALID,1000.88,VALID,0,VALID,90.7772,VALID,0,VALID,24.3062,VALID,325,VALID,0.366016,
2009-07-23, 00:49:04,VALID,1000.88,VALID,0,VALID,90.7696,VALID,0,VALID,24.2866,VALID,325,VALID,0.298828,
2009-07-23, 00:50:04,VALID,1000.88,VALID,0,VALID,90.9451,VALID,0,VALID,24.2458,VALID,325,VALID,0.245703,
2009-07-23, 00:51:04,VALID,1000.86,VALID,0,VALID,90.8993,VALID,0,VALID,24.2263,VALID,325,VALID,0.162891,
2009-07-23, 00:52:04,VALID,1000.86,VALID,0,VALID,91.1434,VALID,0,VALID,24.2281,VALID,325,VALID,0.14375,
2009-07-23, 00:53:04,VALID,1000.83,VALID,0,VALID,91.2121,VALID,0,VALID,24.1872,VALID,325,VALID,0.0882813,
2009-07-23, 00:54:04,VALID,1000.82,VALID,0,VALID,91.296,VALID,0,VALID,24.1891,VALID,325,VALID,0,
2009-07-23, 00:55:04,VALID,1000.81,VALID,0,VALID,91.3037,VALID,0,VALID,24.1287,VALID,325,VALID,0,
2009-07-23, 00:56:04,VALID,1000.82,VALID,0,VALID,91.5173,VALID,0,VALID,24.1324,VALID,325,VALID,0,
2009-07-23, 00:57:04,VALID,1000.83,VALID,0,VALID,91.6775,VALID,0,VALID,24.111,VALID,325,VALID,0,
2009-07-23, 00:58:04,VALID,1000.83,VALID,0,VALID,91.8148,VALID,0,VALID,24.1128,VALID,325,VALID,0,
2009-07-23, 00:59:04,VALID,1000.83,VALID,0,VALID,91.7462,VALID,0,VALID,24.1128,VALID,325,VALID,0,
2009-07-23, 01:00:04,VALID,1000.84,VALID,0,VALID,91.5631,VALID,0,VALID,24.0525,VALID,325,VALID,0.132031,
2009-07-23, 01:01:04,VALID,1000.81,VALID,0,VALID,91.502,VALID,0,VALID,24.0348,VALID,325,VALID,0,
2009-07-23, 01:02:04,VALID,1000.78,VALID,0,VALID,91.4868,VALID,0,VALID,23.9957,VALID,325,VALID,0,
2009-07-23, 01:03:04,VALID,1000.77,VALID,0,VALID,91.5707,VALID,0,VALID,23.9549,VALID,325,VALID,0,
2009-07-23, 01:04:04,VALID,1000.74,VALID,0,VALID,91.7004,VALID,0,VALID,23.9354,VALID,325,VALID,0.561719,
2009-07-23, 01:05:04,VALID,1000.68,VALID,0,VALID,91.7538,VALID,0,VALID,23.9372,VALID,332,VALID,0.591406,
2009-07-23, 01:06:04,VALID,1000.65,VALID,0,VALID,91.914,VALID,0,VALID,23.9354,VALID,338,VALID,0.648047,
2009-07-23, 01:07:04,VALID,1000.63,VALID,0,VALID,92.3566,VALID,0,VALID,23.9354,VALID,338,VALID,0.655469,
2009-07-23, 01:08:04,VALID,1000.61,VALID,0,VALID,92.471,VALID,0,VALID,23.9549,VALID,338,VALID,0.6875,
2009-07-23, 01:09:04,VALID,1000.61,VALID,0,VALID,92.4176,VALID,0,VALID,23.9957,VALID,338,VALID,0.646484,
2009-07-23, 01:10:04,VALID,1000.57,VALID,0,VALID,92.616,VALID,0,VALID,24.0134,VALID,13,VALID,0.782031,
2009-07-23, 01:11:04,VALID,1000.55,VALID,0,VALID,91.8911,VALID,0,VALID,23.9957,VALID,30,VALID,0.896094,
2009-07-23, 01:12:04,VALID,1000.56,VALID,0,VALID,91.5936,VALID,0,VALID,23.9159,VALID,22,VALID,0.783594,
2009-07-23, 01:13:04,VALID,1000.54,VALID,0,VALID,92.0666,VALID,0,VALID,23.9159,VALID,16,VALID,0.715625,
2009-07-23, 01:14:04,VALID,1000.5,VALID,0,VALID,91.8377,VALID,0,VALID,23.8963,VALID,358,VALID,0.5,
2009-07-23, 01:15:04,VALID,1000.51,VALID,0,VALID,91.7233,VALID,0,VALID,23.8573,VALID,358,VALID,0.232812,
2009-07-23, 01:16:04,VALID,1000.5,VALID,0,VALID,92.0743,VALID,0,VALID,23.8573,VALID,358,VALID,0.367188,
2009-07-23, 01:17:04,VALID,1000.5,VALID,0,VALID,92.204,VALID,0,VALID,23.8591,VALID,358,VALID,0.320703,
2009-07-23, 01:18:04,VALID,1000.46,VALID,0,VALID,92.3184,VALID,0,VALID,23.8573,VALID,358,VALID,0.211328,
2009-07-23, 01:19:04,VALID,1000.5,VALID,0,VALID,92.4634,VALID,0,VALID,23.8573,VALID,358,VALID,0.251953,
2009-07-23, 01:20:04,VALID,1000.48,VALID,0,VALID,92.5702,VALID,0,VALID,23.8573,VALID,358,VALID,0.160156,
2009-07-23, 01:21:04,VALID,1000.47,VALID,0,VALID,92.6388,VALID,0,VALID,23.8768,VALID,358,VALID,0.127734,
2009-07-23, 01:22:04,VALID,1000.49,VALID,0,VALID,92.4557,VALID,0,VALID,23.8573,VALID,358,VALID,0.133203,
2009-07-23, 01:23:04,VALID,1000.46,VALID,0,VALID,92.5931,VALID,0,VALID,23.8378,VALID,358,VALID,0.298047,
2009-07-23, 01:24:04,VALID,1000.45,VALID,0,VALID,92.7762,VALID,0,VALID,23.8378,VALID,358,VALID,0.514453,
2009-07-23, 01:25:04,VALID,1000.47,VALID,0,VALID,92.8906,VALID,0,VALID,23.8378,VALID,9,VALID,0.565625,
2009-07-23, 01:26:04,VALID,1000.42,VALID,0,VALID,92.8143,VALID,0,VALID,23.8591,VALID,58,VALID,0.594922,
2009-07-23, 01:27:04,VALID,1000.44,VALID,0,VALID,92.9822,VALID,0,VALID,23.8573,VALID,76,VALID,1.19453,
2009-07-23, 01:28:04,VALID,1000.41,VALID,0,VALID,92.8677,VALID,0,VALID,23.8378,VALID,84,VALID,0.90625,
2009-07-23, 01:29:04,VALID,1000.38,VALID,0,VALID,93.0051,VALID,0,VALID,23.8768,VALID,84,VALID,0.796875,
2009-07-23, 01:30:04,VALID,1000.38,VALID,0,VALID,92.9135,VALID,0,VALID,23.8573,VALID,84,VALID,0.865625,
2009-07-23, 01:31:04,VALID,1000.33,VALID,0,VALID,92.7151,VALID,0,VALID,23.8378,VALID,85,VALID,0.970312,
2009-07-23, 01:32:04,VALID,1000.33,VALID,0,VALID,92.5702,VALID,0,VALID,23.8183,VALID,85,VALID,0.869922,
2009-07-23, 01:33:04,VALID,1000.29,VALID,0,VALID,92.4939,VALID,0,VALID,23.7988,VALID,85,VALID,0.665234,
2009-07-23, 01:34:04,VALID,1000.28,VALID,0,VALID,92.4328,VALID,0,VALID,23.8201,VALID,85,VALID,0.595312,
2009-07-23, 01:35:04,VALID,1000.24,VALID,0,VALID,92.4176,VALID,0,VALID,23.7988,VALID,88,VALID,0.685156,
2009-07-23, 01:36:04,VALID,1000.23,VALID,0,VALID,92.4481,VALID,0,VALID,23.8183,VALID,88,VALID,0.279687,
2009-07-23, 01:37:04,VALID,1000.26,VALID,0,VALID,92.3566,VALID,0,VALID,23.8183,VALID,88,VALID,0.244922,
2009-07-23, 01:38:04,VALID,1000.27,VALID,0,VALID,92.3031,VALID,0,VALID,23.8183,VALID,88,VALID,0.0257812,
2009-07-23, 01:39:04,VALID,1000.26,VALID,0,VALID,92.2726,VALID,0,VALID,23.8396,VALID,88,VALID,0,
2009-07-23, 01:40:04,VALID,1000.28,VALID,0,VALID,92.3184,VALID,0,VALID,23.8201,VALID,88,VALID,0.135937,
2009-07-23, 01:41:04,VALID,1000.26,VALID,0,VALID,92.4023,VALID,0,VALID,23.8183,VALID,88,VALID,0.327344,
2009-07-23, 01:42:04,VALID,1000.27,VALID,0,VALID,92.3489,VALID,0,VALID,23.8183,VALID,23,VALID,0.547656,
2009-07-23, 01:43:04,VALID,1000.27,VALID,0,VALID,92.3413,VALID,0,VALID,23.7988,VALID,346,VALID,0.632031,
2009-07-23, 01:44:04,VALID,1000.25,VALID,0,VALID,92.4481,VALID,0,VALID,23.8183,VALID,325,VALID,0.747656,
2009-07-23, 01:45:04,VALID,1000.26,VALID,0,VALID,92.5244,VALID,0,VALID,23.7988,VALID,319,VALID,0.759766,
2009-07-23, 01:46:04,VALID,1000.25,VALID,0,VALID,92.6236,VALID,0,VALID,23.8183,VALID,317,VALID,0.724609,
2009-07-23, 01:47:04,VALID,1000.26,VALID,0,VALID,92.6465,VALID,0,VALID,23.8396,VALID,317,VALID,0.689062,
2009-07-23, 01:48:04,VALID,1000.23,VALID,0,VALID,92.7228,VALID,0,VALID,23.8183,VALID,317,VALID,0.60625,
2009-07-23, 01:49:04,VALID,1000.24,VALID,0,VALID,92.7838,VALID,0,VALID,23.8378,VALID,317,VALID,0.435937,
2009-07-23, 01:50:04,VALID,1000.22,VALID,0,VALID,92.7838,VALID,0,VALID,23.8573,VALID,317,VALID,0.347656,
2009-07-23, 01:51:04,VALID,1000.21,VALID,0,VALID,92.7914,VALID,0,VALID,23.8768,VALID,317,VALID,0.0925781,
2009-07-23, 01:52:04,VALID,1000.2,VALID,0,VALID,92.8143,VALID,0,VALID,23.8982,VALID,317,VALID,0.113281,
2009-07-23, 01:53:04,VALID,1000.18,VALID,0,VALID,92.8448,VALID,0,VALID,23.8963,VALID,317,VALID,0.232812,
2009-07-23, 01:54:04,VALID,1000.15,VALID,0,VALID,92.883,VALID,0,VALID,23.9159,VALID,317,VALID,0.375781,
2009-07-23, 01:55:04,VALID,1000.15,VALID,0,VALID,92.883,VALID,0,VALID,23.9549,VALID,239,VALID,0.513672,
2009-07-23, 01:56:04,VALID,1000.15,VALID,0,VALID,92.8601,VALID,0,VALID,23.9939,VALID,215,VALID,0.616016,
2009-07-23, 01:57:04,VALID,1000.11,VALID,0,VALID,92.8143,VALID,0,VALID,24.0329,VALID,213,VALID,0.642187,
2009-07-23, 01:58:04,VALID,1000.09,VALID,0,VALID,92.6999,VALID,0,VALID,24.0915,VALID,213,VALID,0.667578,
2009-07-23, 01:59:04,VALID,1000.09,VALID,0,VALID,92.616,VALID,0,VALID,24.15,VALID,213,VALID,0.801172,
2009-07-23, 02:00:04,VALID,1000.12,VALID,0,VALID,92.3871,VALID,0,VALID,24.2086,VALID,217,VALID,0.845312,
2009-07-23, 02:01:04,VALID,1000.1,VALID,0,VALID,92.1887,VALID,0,VALID,24.2866,VALID,227,VALID,0.986719,
2009-07-23, 02:02:04,VALID,1000.06,VALID,0,VALID,91.9217,VALID,0,VALID,24.3452,VALID,222,VALID,1.06523,
2009-07-23, 02:03:04,VALID,1000.08,VALID,0,VALID,91.6165,VALID,0,VALID,24.4037,VALID,227,VALID,0.867188,
2009-07-23, 02:04:04,VALID,1000.1,VALID,0,VALID,91.3723,VALID,0,VALID,24.4623,VALID,228,VALID,1.05117,
2009-07-23, 02:05:04,VALID,1000.09,VALID,0,VALID,91.1282,VALID,0,VALID,24.5013,VALID,203,VALID,0.776172,
2009-07-23, 02:06:04,VALID,1000.11,VALID,0,VALID,90.9832,VALID,0,VALID,24.5404,VALID,206,VALID,0.448438,
2009-07-23, 02:07:04,VALID,1000.1,VALID,0,VALID,90.6933,VALID,0,VALID,24.5794,VALID,237,VALID,0.686719,
2009-07-23, 02:08:04,VALID,1000.11,VALID,0,VALID,90.266,VALID,0,VALID,24.6184,VALID,239,VALID,0.744141,
2009-07-23, 02:09:04,VALID,1000.12,VALID,0,VALID,89.854,VALID,0,VALID,24.6575,VALID,227,VALID,0.711328,
2009-07-23, 02:10:04,VALID,1000.14,VALID,0,VALID,89.5717,VALID,0,VALID,24.716,VALID,193,VALID,0.401563,
2009-07-23, 02:11:04,VALID,1000.11,VALID,0,VALID,89.5336,VALID,0,VALID,24.757,VALID,193,VALID,0.283984,
2009-07-23, 02:12:04,VALID,1000.08,VALID,0,VALID,89.5336,VALID,0,VALID,24.7551,VALID,193,VALID,0.109766,
2009-07-23, 02:13:04,VALID,1000.1,VALID,0,VALID,89.5489,VALID,0,VALID,24.7551,VALID,193,VALID,0.273438,
2009-07-23, 02:14:04,VALID,1000.13,VALID,0,VALID,89.5412,VALID,0,VALID,24.7356,VALID,173,VALID,0.427344,
2009-07-23, 02:15:04,VALID,1000.11,VALID,0,VALID,89.7091,VALID,0,VALID,24.6965,VALID,166,VALID,0.611328,
2009-07-23, 02:16:04,VALID,1000.12,VALID,0,VALID,89.999,VALID,0,VALID,24.6575,VALID,166,VALID,0.578516,
2009-07-23, 02:17:04,VALID,1000.12,VALID,0,VALID,90.3042,VALID,0,VALID,24.6203,VALID,166,VALID,0.476172,
2009-07-23, 02:18:04,VALID,1000.12,VALID,0,VALID,90.5178,VALID,0,VALID,24.5599,VALID,166,VALID,0.33125,
2009-07-23, 02:19:04,VALID,1000.1,VALID,0,VALID,90.7162,VALID,0,VALID,24.5209,VALID,166,VALID,0.462109,
2009-07-23, 02:20:04,VALID,1000.12,VALID,0,VALID,90.8611,VALID,0,VALID,24.4837,VALID,346,VALID,0.895703,
2009-07-23, 02:21:04,VALID,1000.13,VALID,0,VALID,91.0519,VALID,0,VALID,24.4037,VALID,314,VALID,0.805469,
2009-07-23, 02:22:04,VALID,1000.1,VALID,0,VALID,91.3189,VALID,0,VALID,24.3647,VALID,314,VALID,0.595703,
2009-07-23, 02:23:04,VALID,1000.08,VALID,0,VALID,91.4181,VALID,0,VALID,24.3257,VALID,311,VALID,0.689453,
2009-07-23, 02:24:04,VALID,1000.1,VALID,0,VALID,91.6546,VALID,0,VALID,24.3275,VALID,311,VALID,0.460547,
2009-07-23, 02:25:04,VALID,1000.06,VALID,0,VALID,91.7462,VALID,0,VALID,24.2866,VALID,311,VALID,0.356641,
2009-07-23, 02:26:04,VALID,1000.09,VALID,0,VALID,91.7462,VALID,0,VALID,24.2671,VALID,311,VALID,0.491797,
2009-07-23, 02:27:04,VALID,1000.04,VALID,0,VALID,91.7614,VALID,0,VALID,24.2476,VALID,311,VALID,0.292578,
2009-07-23, 02:28:04,VALID,1000.03,VALID,0,VALID,91.8225,VALID,0,VALID,24.2281,VALID,311,VALID,0.185156,
2009-07-23, 02:29:04,VALID,1000.01,VALID,0,VALID,91.8988,VALID,0,VALID,24.2495,VALID,311,VALID,0.125781,
2009-07-23, 02:30:04,VALID,1000.04,VALID,0,VALID,91.9522,VALID,0,VALID,24.2281,VALID,311,VALID,0.274609,
2009-07-23, 02:31:04,VALID,999.977,VALID,0,VALID,91.914,VALID,0,VALID,24.2086,VALID,311,VALID,0.330078,
2009-07-23, 02:32:04,VALID,999.998,VALID,0,VALID,91.9598,VALID,0,VALID,24.2086,VALID,311,VALID,0.287109,
2009-07-23, 02:33:04,VALID,999.968,VALID,0,VALID,91.998,VALID,0,VALID,24.1891,VALID,311,VALID,0.214062,
2009-07-23, 02:34:04,VALID,999.949,VALID,0,VALID,92.0361,VALID,0,VALID,24.1891,VALID,311,VALID,0,
2009-07-23, 02:35:04,VALID,999.907,VALID,0,VALID,92.0437,VALID,0,VALID,24.1891,VALID,311,VALID,0.189844,
2009-07-23, 02:36:04,VALID,999.905,VALID,0,VALID,91.9674,VALID,0,VALID,24.1696,VALID,311,VALID,0.251563,
2009-07-23, 02:37:04,VALID,999.912,VALID,0,VALID,92.0285,VALID,0,VALID,24.1696,VALID,312,VALID,0.459766,
2009-07-23, 02:38:04,VALID,999.9,VALID,0,VALID,92.0895,VALID,0,VALID,24.2086,VALID,348,VALID,0.433594,
2009-07-23, 02:39:04,VALID,999.931,VALID,0,VALID,92.0209,VALID,0,VALID,24.2281,VALID,348,VALID,0.239063,
2009-07-23, 02:40:04,VALID,999.956,VALID,0,VALID,91.8988,VALID,0,VALID,24.2281,VALID,348,VALID,0.362891,
2009-07-23, 02:41:04,VALID,999.906,VALID,0,VALID,91.7996,VALID,0,VALID,24.2476,VALID,348,VALID,0.625,
2009-07-23, 02:42:04,VALID,999.932,VALID,0,VALID,91.6851,VALID,0,VALID,24.2476,VALID,47,VALID,0.592969,
2009-07-23, 02:43:04,VALID,999.9,VALID,0,VALID,91.5097,VALID,0,VALID,24.2885,VALID,17,VALID,1.02578,
2009-07-23, 02:44:04,VALID,999.886,VALID,0,VALID,91.3113,VALID,0,VALID,24.2866,VALID,13,VALID,0.942187,
2009-07-23, 02:45:04,VALID,999.911,VALID,0,VALID,91.1053,VALID,0,VALID,24.2476,VALID,16,VALID,1.19922,
2009-07-23, 02:46:04,VALID,999.878,VALID,0,VALID,90.968,VALID,0,VALID,24.1891,VALID,18,VALID,1.05938,
2009-07-23, 02:47:04,VALID,999.881,VALID,0,VALID,91.0214,VALID,0,VALID,24.15,VALID,19,VALID,1.06328,
2009-07-23, 02:48:04,VALID,999.833,VALID,0,VALID,91.0748,VALID,0,VALID,24.111,VALID,17,VALID,0.969141,
2009-07-23, 02:49:04,VALID,999.842,VALID,0,VALID,91.2197,VALID,0,VALID,24.0915,VALID,25,VALID,0.875,
2009-07-23, 02:50:04,VALID,999.815,VALID,0,VALID,91.3571,VALID,0,VALID,24.072,VALID,25,VALID,0.752344,
2009-07-23, 02:51:04,VALID,999.775,VALID,0,VALID,91.4181,VALID,0,VALID,24.0525,VALID,27,VALID,0.627734,
2009-07-23, 02:52:04,VALID,999.76,VALID,0,VALID,91.4791,VALID,0,VALID,24.0525,VALID,27,VALID,0.479688,
2009-07-23, 02:53:04,VALID,999.764,VALID,0,VALID,91.5173,VALID,0,VALID,24.0525,VALID,27,VALID,0.441406,
2009-07-23, 02:54:04,VALID,999.74,VALID,0,VALID,91.5936,VALID,0,VALID,24.0525,VALID,46,VALID,0.835547,
2009-07-23, 02:55:04,VALID,999.746,VALID,0,VALID,91.6699,VALID,0,VALID,24.0525,VALID,47,VALID,0.648047,
2009-07-23, 02:56:04,VALID,999.763,VALID,0,VALID,91.8454,VALID,0,VALID,24.0915,VALID,59,VALID,0.685938,
2009-07-23, 02:57:04,VALID,999.737,VALID,0,VALID,91.9598,VALID,0,VALID,24.1092,VALID,71,VALID,0.717969,
2009-07-23, 02:58:04,VALID,999.729,VALID,0,VALID,92.0285,VALID,0,VALID,24.1092,VALID,71,VALID,0.592969,
2009-07-23, 02:59:04,VALID,999.742,VALID,0,VALID,92.1658,VALID,0,VALID,24.15,VALID,71,VALID,0.492578,
2009-07-23, 03:00:04,VALID,999.749,VALID,0,VALID,92.2345,VALID,0,VALID,24.1891,VALID,74,VALID,0.621875,
2009-07-23, 03:01:04,VALID,999.736,VALID,0,VALID,92.3489,VALID,0.112286,VALID,24.2086,VALID,74,VALID,0.689062,
2009-07-23, 03:02:04,VALID,999.752,VALID,0,VALID,92.3413,VALID,0,VALID,24.2067,VALID,74,VALID,0.602734,
2009-07-23, 03:03:04,VALID,999.76,VALID,0,VALID,92.3184,VALID,0,VALID,24.2458,VALID,74,VALID,0.458594,
2009-07-23, 03:04:04,VALID,999.794,VALID,0,VALID,92.3566,VALID,0.112286,VALID,24.2458,VALID,74,VALID,0.442187,
2009-07-23, 03:05:04,VALID,999.801,VALID,0,VALID,92.326,VALID,0,VALID,24.2458,VALID,74,VALID,0.305078,
2009-07-23, 03:06:04,VALID,999.815,VALID,0,VALID,92.2955,VALID,0,VALID,24.2653,VALID,74,VALID,0.389062,
2009-07-23, 03:07:04,VALID,999.818,VALID,0,VALID,92.2955,VALID,0,VALID,24.2848,VALID,74,VALID,0.403125,
2009-07-23, 03:08:04,VALID,999.823,VALID,0,VALID,92.2574,VALID,0,VALID,24.2848,VALID,49,VALID,0.602734,
2009-07-23, 03:09:04,VALID,999.825,VALID,0,VALID,92.2345,VALID,0,VALID,24.2848,VALID,31,VALID,0.80625,
2009-07-23, 03:10:04,VALID,999.819,VALID,0,VALID,92.1963,VALID,0,VALID,24.2653,VALID,14,VALID,1.03594,
2009-07-23, 03:11:04,VALID,999.852,VALID,0,VALID,92.0361,VALID,0,VALID,24.2653,VALID,360,VALID,1.06797,
2009-07-23, 03:12:04,VALID,999.849,VALID,0,VALID,92.0209,VALID,0,VALID,24.2263,VALID,360,VALID,1.11094,
2009-07-23, 03:13:04,VALID,999.846,VALID,0,VALID,92.0361,VALID,0,VALID,24.2067,VALID,8,VALID,1.06758,
2009-07-23, 03:14:04,VALID,999.843,VALID,0,VALID,91.8148,VALID,0.112286,VALID,24.1482,VALID,10,VALID,1.3918,
2009-07-23, 03:15:04,VALID,999.792,VALID,0,VALID,91.6546,VALID,0,VALID,24.1092,VALID,15,VALID,1.67578,
2009-07-23, 03:16:04,VALID,999.807,VALID,0,VALID,91.6775,VALID,0,VALID,24.0701,VALID,15,VALID,1.55273,
2009-07-23, 03:17:04,VALID,999.816,VALID,0,VALID,91.914,VALID,0,VALID,24.0506,VALID,29,VALID,1.14805,
2009-07-23, 03:18:04,VALID,999.768,VALID,0,VALID,92.0132,VALID,0,VALID,24.0311,VALID,29,VALID,1.18789,
2009-07-23, 03:19:04,VALID,999.782,VALID,0,VALID,92.0132,VALID,0,VALID,24.0311,VALID,46,VALID,1.32617,
2009-07-23, 03:20:04,VALID,999.786,VALID,0,VALID,91.8835,VALID,0.112286,VALID,24.0701,VALID,50,VALID,1.18164,
2009-07-23, 03:21:04,VALID,999.784,VALID,0,VALID,91.9522,VALID,0,VALID,24.0701,VALID,65,VALID,1.04023,
2009-07-23, 03:22:04,VALID,999.724,VALID,0,VALID,91.9674,VALID,0,VALID,24.0897,VALID,68,VALID,1.18242,
2009-07-23, 03:23:04,VALID,999.742,VALID,0,VALID,91.998,VALID,0,VALID,24.0897,VALID,73,VALID,1.16484,
2009-07-23, 03:24:04,VALID,999.721,VALID,0,VALID,92.204,VALID,0,VALID,24.1092,VALID,78,VALID,1.04414,
2009-07-23, 03:25:04,VALID,999.72,VALID,0,VALID,92.2345,VALID,0,VALID,24.0897,VALID,80,VALID,1.03203,
2009-07-23, 03:26:04,VALID,999.756,VALID,0,VALID,92.4176,VALID,0,VALID,24.1092,VALID,81,VALID,0.561328,
2009-07-23, 03:27:04,VALID,999.758,VALID,0,VALID,92.5397,VALID,0,VALID,24.1092,VALID,95,VALID,0.541406,
2009-07-23, 03:28:04,VALID,999.746,VALID,0,VALID,92.6541,VALID,0,VALID,24.1287,VALID,95,VALID,0.862109,
2009-07-23, 03:29:04,VALID,999.726,VALID,0,VALID,92.5626,VALID,0,VALID,24.15,VALID,92,VALID,0.970703,
2009-07-23, 03:30:04,VALID,999.753,VALID,0.5,VALID,92.6923,VALID,0,VALID,24.15,VALID,83,VALID,0.946875,
2009-07-23, 03:31:04,VALID,999.747,VALID,0,VALID,92.7762,VALID,0,VALID,24.1482,VALID,85,VALID,0.665625,
2009-07-23, 03:32:04,VALID,999.77,VALID,0,VALID,92.8983,VALID,0,VALID,24.1696,VALID,149,VALID,0.774219,
2009-07-23, 03:33:04,VALID,999.746,VALID,0,VALID,93.0585,VALID,0,VALID,24.1696,VALID,124,VALID,1.17148,
2009-07-23, 03:34:04,VALID,999.771,VALID,0,VALID,93.1424,VALID,0,VALID,24.2281,VALID,155,VALID,0.921484,
2009-07-23, 03:35:04,VALID,999.755,VALID,0,VALID,93.2492,VALID,0.112286,VALID,24.2866,VALID,149,VALID,1.25586,
2009-07-23, 03:36:04,VALID,999.767,VALID,0,VALID,92.883,VALID,0,VALID,24.2848,VALID,139,VALID,1.52031,
2009-07-23, 03:37:04,VALID,999.776,VALID,0,VALID,92.41,VALID,0,VALID,24.3238,VALID,141,VALID,1.29453,
2009-07-23, 03:38:04,VALID,999.787,VALID,0.5,VALID,91.9369,VALID,0,VALID,24.3433,VALID,146,VALID,0.798437,
2009-07-23, 03:39:04,VALID,999.822,VALID,0,VALID,91.9369,VALID,0,VALID,24.4019,VALID,119,VALID,0.745703,
2009-07-23, 03:40:04,VALID,999.781,VALID,0,VALID,91.8606,VALID,0,VALID,24.4019,VALID,99,VALID,1.24961,
2009-07-23, 03:41:04,VALID,999.812,VALID,0,VALID,91.8835,VALID,0,VALID,24.4233,VALID,84,VALID,0.994922,
2009-07-23, 03:42:04,VALID,999.812,VALID,0,VALID,91.9369,VALID,0,VALID,24.4642,VALID,79,VALID,0.64375,
2009-07-23, 03:43:04,VALID,999.799,VALID,0,VALID,91.9827,VALID,0,VALID,24.4233,VALID,77,VALID,0.202344,
2009-07-23, 03:44:04,VALID,999.782,VALID,0,VALID,91.9598,VALID,0,VALID,24.4251,VALID,320,VALID,0.619531,
2009-07-23, 03:45:04,VALID,999.784,VALID,0,VALID,91.9827,VALID,0,VALID,24.4037,VALID,330,VALID,0.332031,